Regional Weather Roundup
Issued by NWS

Home | Current Version | Previous Version | Text Only | Print | Product List | Glossary On
Versions: 1 2 3 4 5 6 7 8 9 10 11 12 13 14 15 16 17 18 19 20 21 22 23 24 25 26 27 28 29 30 31 32 33 34 35 36 37 38 39 40 41 42 43 44 45 46 47 48 49 50
000
ASUS43 KLMK 080002
RWRKY
KENTUCKY REGIONAL WEATHER ROUNDUP
NATIONAL WEATHER SERVICE LOUISVILLE KY
800 PM EDT TUE JUL 07 2015

NOTE "FAIR" INDICATES FEW OR NO CLOUDS BELOW 12,000 FEET
WITH NO SIGNIFICANT WEATHER AND/OR OBSTRUCTIONS TO VISIBILITY.

KYZ001>023-026-027-061>063-070>075-080100-
WESTERN AND SOUTH CENTRAL KENTUCKY

CITY           SKY/WX    TMP DP  RH WIND       PRES   REMARKS
PADUCAH        CLOUDY    75  72  90 SW6       29.98R
HENDERSON      PTSUNNY   79  72  78 SW3       29.95R
OWENSBORO      CLOUDY    77  74  90 SW15      29.98R
HOPKINSVILLE   CLOUDY    72  71  95 W3        30.01F
BOWLING GREEN  CLOUDY    83  72  69 SW12      30.00S
GLASGOW        NOT AVBL
$$

KYZ024-025-028>034-038-045-046-053-080100-
NORTH CENTRAL KENTUCKY

CITY           SKY/WX    TMP DP  RH WIND       PRES   REMARKS
LOUISVILLE/SDF CLOUDY    75  73  93 SW7       29.97S
LOUISVILLE/LOU CLOUDY    76  73  91 SW3       29.98F
FORT KNOX      CLOUDY    76  72  89 S3        29.97S
$$

KYZ035>037-039>044-047>052-055>060-089>105-080100-
NORTHEAST KENTUCKY

CITY           SKY/WX    TMP DP  RH WIND       PRES   REMARKS
LEXINGTON      LGT RAIN  71  68  90 SW12      30.02R FOG
COVINGTON      LGT RAIN  73  70  90 SW10G17   29.97S FOG
FRANKFORT      CLOUDY    73  69  87 SW7       30.00S
$$

KYZ054-064>069-076>088-106>120-080100-
SOUTHEAST KENTUCKY

CITY           SKY/WX    TMP DP  RH WIND       PRES   REMARKS
JACKSON        CLOUDY    78  72  81 CALM      30.05R
LONDON         CLOUDY    82  66  58 SW6       30.05S
SOMERSET       NOT AVBL
MIDDLESBORO    NOT AVBL
MONTICELLO     CLOUDY    80  74  82 CALM      30.07R
$$




USA.gov is the U.S. government's official web portal to all federal, state and local government web resources and services.